DLH242 EDDS-LGIR

Flight info

Callsign DLH242
Flight time N/A
Altitude 35000
Route ABTAL4B ABTAL L173 RIXED Y161 MAH L173 OTT M867 VAVOR DCT RADIZ DCT ZARVE/N0447F370 DCT TUPUS DCT ELTIB DCT RETRA DCT PINDO UL607 NETIS/N0406F230 L607 GIVIS T514 XAVIS
Aircraft A320/M-SDE3FGHIRWY/LB1

Departure

Time N/A
Airport Stuttgart Airport (EDDS)

Arrival

Time 2026-05-07 09:28
Airport Heraklion International Nikos Kazantzakis Airport (LGIR)
Time Latitude Longitude Altitude Speed Heading
2026-05-07 08:59 37.67924 24.11772 31147 ft 485 kts 130°
2026-05-07 09:00 37.63560 24.18252 31148 ft 485 kts 130°
2026-05-07 09:00 37.59183 24.24728 31147 ft 485 kts 130°
2026-05-07 09:01 37.54417 24.30737 31145 ft 486 kts 143°
2026-05-07 09:01 37.48741 24.35339 31149 ft 485 kts 149°
2026-05-07 09:02 37.43041 24.39807 31157 ft 481 kts 150°
2026-05-07 09:02 37.37371 24.44263 31147 ft 480 kts 150°
2026-05-07 09:03 37.31702 24.48711 31167 ft 480 kts 150°
2026-05-07 09:03 37.26053 24.53139 31162 ft 478 kts 150°
2026-05-07 09:04 37.20406 24.57534 31164 ft 478 kts 150°
2026-05-07 09:04 37.14754 24.61928 31164 ft 478 kts 150°
2026-05-07 09:05 37.09080 24.66333 31167 ft 480 kts 150°
2026-05-07 09:05 37.03410 24.70735 31149 ft 480 kts 150°
2026-05-07 09:06 36.97771 24.75107 31153 ft 480 kts 150°
2026-05-07 09:06 36.92091 24.79501 31151 ft 480 kts 150°
2026-05-07 09:07 36.86410 24.83897 31146 ft 481 kts 150°
2026-05-07 09:07 36.83558 24.86098 30914 ft 481 kts 150°
2026-05-07 09:07 36.80713 24.88295 30664 ft 482 kts 150°
2026-05-07 09:08 36.77860 24.90501 30416 ft 482 kts 149°
2026-05-07 09:08 36.75013 24.92700 30166 ft 481 kts 149°
2026-05-07 09:08 36.72167 24.94896 29917 ft 481 kts 149°
2026-05-07 09:08 36.69317 24.97092 29668 ft 482 kts 149°
2026-05-07 09:09 36.66459 24.99289 29418 ft 482 kts 149°
2026-05-07 09:09 36.63598 25.01486 29169 ft 483 kts 149°
2026-05-07 09:09 36.60741 25.03678 28918 ft 483 kts 149°
2026-05-07 09:09 36.57885 25.05867 28669 ft 481 kts 149°
2026-05-07 09:10 36.55037 25.08045 28418 ft 479 kts 149°
2026-05-07 09:10 36.52206 25.10202 27914 ft 476 kts 149°
2026-05-07 09:10 36.49388 25.12348 27217 ft 472 kts 149°
2026-05-07 09:10 36.46603 25.14471 26556 ft 468 kts 149°
2026-05-07 09:11 36.43837 25.16578 25901 ft 465 kts 149°
2026-05-07 09:11 36.41094 25.18669 25251 ft 461 kts 149°
2026-05-07 09:11 36.38370 25.20745 24611 ft 457 kts 149°
2026-05-07 09:11 36.35671 25.22795 23975 ft 454 kts 150°
2026-05-07 09:12 36.32988 25.24829 23362 ft 449 kts 150°
2026-05-07 09:12 36.30333 25.26845 22738 ft 446 kts 150°
2026-05-07 09:12 36.27696 25.28849 22173 ft 442 kts 149°
2026-05-07 09:12 36.25082 25.30835 21630 ft 438 kts 149°
2026-05-07 09:13 36.22491 25.32797 21100 ft 435 kts 149°
2026-05-07 09:13 36.19924 25.34740 20592 ft 431 kts 149°
2026-05-07 09:13 36.17370 25.36671 20095 ft 428 kts 149°
2026-05-07 09:13 36.14846 25.38579 19602 ft 424 kts 149°
2026-05-07 09:14 36.12290 25.40353 19126 ft 419 kts 156°
2026-05-07 09:14 36.09573 25.41608 18635 ft 415 kts 163°
2026-05-07 09:14 36.06834 25.42705 18133 ft 412 kts 163°
2026-05-07 09:14 36.04114 25.43799 17628 ft 410 kts 163°
2026-05-07 09:15 36.01415 25.44883 17122 ft 407 kts 163°
2026-05-07 09:15 35.98730 25.45963 16597 ft 405 kts 163°
2026-05-07 09:15 35.96057 25.47038 16080 ft 403 kts 163°
2026-05-07 09:15 35.93435 25.48093 15551 ft 401 kts 163°
2026-05-07 09:16 35.90787 25.49157 15031 ft 399 kts 163°
2026-05-07 09:16 35.88154 25.50215 14477 ft 398 kts 163°
2026-05-07 09:16 35.85528 25.51269 13947 ft 396 kts 163°
2026-05-07 09:16 35.82908 25.52318 13389 ft 394 kts 163°
2026-05-07 09:17 35.80315 25.53357 12843 ft 391 kts 162°
2026-05-07 09:17 35.77730 25.54393 12280 ft 388 kts 162°
2026-05-07 09:17 35.75171 25.55418 11709 ft 386 kts 162°
2026-05-07 09:17 35.72624 25.56435 11157 ft 383 kts 162°
2026-05-07 09:18 35.70147 25.57559 10796 ft 374 kts 154°
2026-05-07 09:18 35.67976 25.59184 10660 ft 358 kts 142°
2026-05-07 09:18 35.66070 25.61051 10545 ft 343 kts 141°
2026-05-07 09:18 35.64239 25.62852 10417 ft 330 kts 141°
2026-05-07 09:19 35.62480 25.64575 10304 ft 317 kts 142°
2026-05-07 09:19 35.60562 25.65772 10101 ft 307 kts 168°
2026-05-07 09:19 35.58458 25.65834 9685 ft 304 kts 194°
2026-05-07 09:19 35.56573 25.64740 9212 ft 300 kts 221°
2026-05-07 09:20 35.55278 25.62791 8757 ft 296 kts 246°
2026-05-07 09:20 35.54744 25.60375 8301 ft 292 kts 264°
2026-05-07 09:20 35.54352 25.57935 7862 ft 291 kts 254°
2026-05-07 09:20 35.53574 25.55649 7407 ft 291 kts 241°
2026-05-07 09:21 35.52513 25.53551 7020 ft 288 kts 238°
2026-05-07 09:21 35.51441 25.51477 6602 ft 286 kts 238°
2026-05-07 09:21 35.50371 25.49419 6146 ft 285 kts 238°
2026-05-07 09:21 35.49309 25.47381 5690 ft 283 kts 238°
2026-05-07 09:22 35.48257 25.45366 5334 ft 278 kts 238°
2026-05-07 09:22 35.47209 25.43357 4870 ft 277 kts 237°
2026-05-07 09:22 35.46164 25.41379 4385 ft 277 kts 234°
2026-05-07 09:22 35.44834 25.39712 3958 ft 274 kts 216°
2026-05-07 09:23 35.43759 25.38943 3825 ft 265 kts 203°
2026-05-07 09:23 35.42049 25.38307 3716 ft 250 kts 192°
2026-05-07 09:23 35.40382 25.37867 3498 ft 241 kts 192°
2026-05-07 09:23 35.38777 25.37438 3350 ft 231 kts 192°
2026-05-07 09:24 35.37253 25.37026 3247 ft 218 kts 192°
2026-05-07 09:24 35.35352 25.36512 3123 ft 206 kts 192°
2026-05-07 09:24 35.34023 25.36037 3036 ft 194 kts 209°
2026-05-07 09:24 35.33366 25.35347 2984 ft 175 kts 231°
2026-05-07 09:25 35.32916 25.34053 2763 ft 163 kts 262°
2026-05-07 09:25 35.32967 25.32714 2547 ft 155 kts 275°
2026-05-07 09:25 35.33060 25.31425 2326 ft 151 kts 275°
2026-05-07 09:25 35.33145 25.30150 2108 ft 150 kts 275°
2026-05-07 09:26 35.33230 25.28885 1887 ft 148 kts 275°
2026-05-07 09:26 35.33316 25.27631 1670 ft 147 kts 275°
2026-05-07 09:26 35.33402 25.26385 1433 ft 146 kts 276°
2026-05-07 09:26 35.33491 25.25135 1203 ft 147 kts 275°
2026-05-07 09:27 35.33574 25.23897 991 ft 145 kts 276°
2026-05-07 09:27 35.33659 25.22671 772 ft 144 kts 276°
2026-05-07 09:27 35.33822 25.20253 334 ft 143 kts 275°
2026-05-07 09:28 35.33905 25.19042 188 ft 142 kts 277°
2026-05-07 09:28 35.34010 25.17851 96 ft 131 kts 274°
2026-05-07 09:28 35.34050 25.17202 82 ft 32 kts 274°
2026-05-07 09:28 35.33978 25.17009 70 ft 26 kts 175°